| time (UTC) | temp C | wind direction | speed KPH | gust KPH | rain 1hr cm | rain 24hr cm | rain mn cm | humidity % | barometer mb |
| 20260503193035 | 18 | 173 | 0.0 | 1.6 | 0.00 | 0.00 | 0.00 | 49 | 1016.1 |
| 20260503191528 | 18 | 173 | 0.0 | 3.2 | 0.00 | 0.00 | 0.00 | 47 | 1016.0 |
| 20260503190036 | 18 | 173 | 1.6 | 4.8 | 0.00 | 0.00 | 0.00 | 47 | 1015.7 |
| 20260503184536 | 20 | 169 | 3.2 | 11.3 | 0.00 | 0.00 | 0.00 | 47 | 1015.6 |
| 20260503183027 | 20 | 181 | 6.4 | 12.9 | 0.00 | 0.00 | 0.00 | 47 | 1015.6 |
| 20260503181526 | 20 | 158 | 1.6 | 6.4 | 0.00 | 0.00 | 0.00 | 45 | 1015.5 |
| 20260503180026 | 21 | 202 | 0.0 | 3.2 | 0.00 | 0.00 | 0.00 | 45 | 1015.5 |
| 20260503174525 | 21 | 202 | 0.0 | 4.8 | 0.00 | 0.00 | 0.00 | 44 | 1015.5 |
| 20260503173032 | 21 | 202 | 1.6 | 4.8 | 0.00 | 0.00 | 0.00 | 43 | 1015.4 |
| 20260503171523 | 21 | 205 | 3.2 | 6.4 | 0.00 | 0.00 | 0.00 | 44 | 1015.5 |
| 20260503120116 | 21 | 207 | 8.0 | 16.1 | 0.00 | 0.00 | 0.00 | 45 | 1017.8 |
| 20260503081525 | 18 | 179 | 3.2 | 11.3 | 0.00 | 0.00 | 0.00 | 56 | 1018.5 |
| 20260503071517 | 17 | 81 | 4.8 | 12.9 | 0.00 | 0.00 | 0.00 | 60 | 1018.5 |
| 20260503054557 | 12 | 39 | 3.2 | 6.4 | 0.00 | 0.00 | 0.00 | 76 | 1018.6 |
| 20260503053053 | 12 | 38 | 3.2 | 6.4 | 0.00 | 0.00 | 0.00 | 76 | 1018.5 |
| 20260503051554 | 11 | 39 | 3.2 | 8.0 | 0.00 | 0.00 | 0.00 | 77 | 1018.4 |
| 20260503050051 | 11 | 38 | 6.4 | 9.7 | 0.00 | 0.00 | 0.00 | 78 | 1018.4 |
| 20260503044546 | 11 | 46 | 4.8 | 8.0 | 0.00 | 0.00 | 0.00 | 78 | 1018.4 |
| 20260503043047 | 11 | 35 | 4.8 | 8.0 | 0.00 | 0.00 | 0.00 | 78 | 1018.5 |
| 20260503041541 | 10 | 38 | 4.8 | 6.4 | 0.00 | 0.00 | 0.00 | 78 | 1018.5 |
| 20260503040047 | 11 | 30 | 3.2 | 6.4 | 0.00 | 0.00 | 0.00 | 78 | 1018.4 |
| 20260503034554 | 11 | 42 | 3.2 | 6.4 | 0.00 | 0.00 | 0.00 | 78 | 1018.4 |
| 20260503033043 | 11 | 36 | 3.2 | 6.4 | 0.00 | 0.00 | 0.00 | 78 | 1018.4 |
| 20260503031541 | 11 | 33 | 4.8 | 8.0 | 0.00 | 0.00 | 0.00 | 78 | 1018.5 |
| 20260503030047 | 11 | 34 | 3.2 | 6.4 | 0.00 | 0.00 | 0.00 | 78 | 1018.5 |
| 20260503024534 | 11 | 40 | 3.2 | 6.4 | 0.00 | 0.00 | 0.00 | 77 | 1018.6 |
| 20260503023033 | 11 | 29 | 4.8 | 9.7 | 0.00 | 0.00 | 0.00 | 77 | 1018.5 |
| 20260503021539 | 11 | 42 | 4.8 | 9.7 | 0.00 | 0.00 | 0.00 | 76 | 1018.7 |
| 20260503020029 | 11 | 34 | 0.0 | 4.8 | 0.00 | 0.00 | 0.00 | 76 | 1018.9 |
| 20260503014527 | 11 | 40 | 4.8 | 8.0 | 0.00 | 0.00 | 0.00 | 75 | 1018.8 |
| 20260503013026 | 12 | 355 | 3.2 | 6.4 | 0.00 | 0.00 | 0.00 | 75 | 1018.8 |
| 20260503011525 | 12 | 26 | 6.4 | 14.5 | 0.00 | 0.00 | 0.00 | 75 | 1018.8 |
| 20260503010023 | 12 | 38 | 6.4 | 9.7 | 0.00 | 0.00 | 0.00 | 75 | 1019.0 |
| 20260503004522 | 12 | 39 | 8.0 | 14.5 | 0.00 | 0.00 | 0.00 | 75 | 1019.1 |
| 20260503003021 | 12 | 43 | 4.8 | 9.7 | 0.00 | 0.00 | 0.00 | 75 | 1019.3 |
| 20260503001517 | 12 | 46 | 6.4 | 11.3 | 0.00 | 0.00 | 0.00 | 75 | 1019.4 |
| 20260503000014 | 12 | 48 | 4.8 | 8.0 | 0.00 | 0.00 | 0.00 | 74 | 1019.6 |
| 20260502234511 | 12 | 355 | 4.8 | 12.9 | 0.00 | 0.00 | 0.00 | 74 | 1019.7 |
| 20260502233010 | 12 | 28 | 3.2 | 8.0 | 0.00 | 0.00 | 0.00 | 74 | 1019.9 |
| 20260502231605 | 12 | 44 | 4.8 | 9.7 | 0.00 | 0.00 | 0.00 | 73 | 1020.0 |
| 20260502230054 | 12 | 344 | 4.8 | 6.4 | 0.00 | 0.00 | 0.00 | 73 | 1020.0 |
| 20260502224552 | 12 | 348 | 3.2 | 8.0 | 0.00 | 0.00 | 0.00 | 72 | 1020.0 |
| 20260502223051 | 12 | 35 | 4.8 | 8.0 | 0.00 | 0.00 | 0.00 | 72 | 1020.1 |
| 20260502221550 | 12 | 351 | 3.2 | 6.4 | 0.00 | 0.00 | 0.00 | 72 | 1020.1 |
| 20260502220052 | 12 | 56 | 3.2 | 6.4 | 0.00 | 0.00 | 0.00 | 71 | 1020.1 |
| 20260502214547 | 13 | 48 | 3.2 | 6.4 | 0.00 | 0.00 | 0.00 | 70 | 1020.0 |
| 20260502213047 | 13 | 39 | 3.2 | 6.4 | 0.00 | 0.00 | 0.00 | 70 | 1020.0 |
| 20260502211549 | 13 | 13 | 3.2 | 6.4 | 0.00 | 0.00 | 0.00 | 69 | 1020.0 |
| 20260502210055 | 13 | 47 | 3.2 | 8.0 | 0.00 | 0.00 | 0.00 | 68 | 1020.1 |
| 20260502204545 | 14 | 35 | 3.2 | 6.4 | 0.00 | 0.00 | 0.00 | 68 | 1020.1 |
| 20260502203049 | 15 | 24 | 1.6 | 4.8 | 0.00 | 0.00 | 0.00 | 66 | 1020.1 |
| 20260502201545 | 15 | 48 | 1.6 | 4.8 | 0.00 | 0.00 | 0.00 | 65 | 1020.2 |
| 20260502200044 | 15 | 48 | 3.2 | 6.4 | 0.00 | 0.00 | 0.00 | 64 | 1020.1 |
| 20260502194543 | 16 | 48 | 3.2 | 6.4 | 0.00 | 0.00 | 0.00 | 62 | 1019.9 |